| time (UTC) | temp C | wind direction | speed KPH | gust KPH | rain 1hr cm | rain 24hr cm | rain mn cm | humidity % | barometer mb |
| 20260508025617 | 27 | 231 | 0.0 | 0.0 | 0.00 | 0.00 | 0.00 | 16 | 40.9 |
| 20260508025117 | 28 | 231 | 0.0 | 1.6 | 0.00 | 0.00 | 0.00 | 17 | 40.9 |
| 20260508024617 | 28 | 231 | 0.0 | 1.6 | 0.00 | 0.00 | 0.00 | 17 | 40.9 |
| 20260508024116 | 28 | 235 | 0.0 | 1.6 | 0.00 | 0.00 | 0.00 | 15 | 40.9 |
| 20260508023616 | 28 | 237 | 0.0 | 1.6 | 0.00 | 0.00 | 0.00 | 16 | 40.9 |
| 20260508023116 | 29 | 243 | 0.0 | 3.2 | 0.00 | 0.00 | 0.00 | 14 | 40.9 |
| 20260508022616 | 29 | 234 | 0.0 | 3.2 | 0.00 | 0.00 | 0.00 | 15 | 40.9 |
| 20260508022116 | 30 | 226 | 0.0 | 1.6 | 0.00 | 0.00 | 0.00 | 14 | 40.9 |
| 20260508021616 | 30 | 226 | 0.0 | 1.6 | 0.00 | 0.00 | 0.00 | 14 | 40.9 |
| 20260508021115 | 30 | 212 | 0.0 | 3.2 | 0.00 | 0.00 | 0.00 | 14 | 40.9 |
| 20260508020615 | 31 | 225 | 0.0 | 3.2 | 0.00 | 0.00 | 0.00 | 14 | 40.9 |
| 20260508020115 | 31 | 236 | 0.0 | 3.2 | 0.00 | 0.00 | 0.00 | 13 | 40.8 |
| 20260508015617 | 31 | 220 | 3.2 | 4.8 | 0.00 | 0.00 | 0.00 | 12 | 40.8 |
| 20260508015115 | 32 | 212 | 0.0 | 4.8 | 0.00 | 0.00 | 0.00 | 12 | 40.8 |
| 20260508014615 | 32 | 176 | 0.0 | 8.0 | 0.00 | 0.00 | 0.00 | 11 | 40.8 |
| 20260508014116 | 32 | 218 | 0.0 | 8.0 | 0.00 | 0.00 | 0.00 | 11 | 40.8 |
| 20260508013614 | 33 | 224 | 1.6 | 6.4 | 0.00 | 0.00 | 0.00 | 11 | 40.8 |
| 20260508013114 | 33 | 214 | 1.6 | 6.4 | 0.00 | 0.00 | 0.00 | 10 | 40.8 |
| 20260508012616 | 33 | 219 | 0.0 | 4.8 | 0.00 | 0.00 | 0.00 | 10 | 40.8 |
| 20260508012114 | 34 | 224 | 3.2 | 4.8 | 0.00 | 0.00 | 0.00 | 10 | 40.8 |
| 20260508011614 | 35 | 217 | 1.6 | 1.6 | 0.00 | 0.00 | 0.00 | 9 | 40.8 |
| 20260508011115 | 34 | 48 | 0.0 | 1.6 | 0.00 | 0.00 | 0.00 | 8 | 40.8 |
| 20260508010613 | 34 | 47 | 0.0 | 3.2 | 0.00 | 0.00 | 0.00 | 7 | 40.8 |
| 20260508010113 | 34 | 20 | 0.0 | 4.8 | 0.00 | 0.00 | 0.00 | 8 | 40.8 |
| 20260508005613 | 35 | 358 | 0.0 | 4.8 | 0.00 | 0.00 | 0.00 | 8 | 40.8 |
| 20260508005113 | 35 | 210 | 0.0 | 3.2 | 0.00 | 0.00 | 0.00 | 8 | 40.8 |
| 20260508004613 | 35 | 238 | 0.0 | 4.8 | 0.00 | 0.00 | 0.00 | 8 | 40.8 |
| 20260508004113 | 35 | 336 | 0.0 | 4.8 | 0.00 | 0.00 | 0.00 | 8 | 40.8 |
| 20260508003613 | 35 | 54 | 1.6 | 6.4 | 0.00 | 0.00 | 0.00 | 8 | 40.8 |
| 20260508003114 | 35 | 288 | 0.0 | 6.4 | 0.00 | 0.00 | 0.00 | 6 | 40.8 |
| 20260508002612 | 35 | 249 | 0.0 | 4.8 | 0.00 | 0.00 | 0.00 | 8 | 40.8 |
| 20260508002113 | 34 | 4 | 1.6 | 4.8 | 0.00 | 0.00 | 0.00 | 8 | 40.8 |
| 20260508001612 | 34 | 108 | 0.0 | 6.4 | 0.00 | 0.00 | 0.00 | 6 | 40.8 |
| 20260508001112 | 34 | 6 | 0.0 | 9.7 | 0.00 | 0.00 | 0.00 | 7 | 40.8 |
| 20260508000612 | 34 | 346 | 3.2 | 9.7 | 0.00 | 0.00 | 0.00 | 6 | 40.8 |
| 20260508000112 | 34 | 248 | 0.0 | 4.8 | 0.00 | 0.00 | 0.00 | 9 | 40.8 |
| 20260507235611 | 34 | 266 | 0.0 | 9.7 | 0.00 | 0.00 | 0.00 | 8 | 40.8 |
| 20260507235111 | 34 | 153 | 0.0 | 9.7 | 0.00 | 0.00 | 0.00 | 7 | 40.8 |
| 20260507234611 | 35 | 106 | 9.7 | 9.7 | 0.00 | 0.00 | 0.00 | 7 | 40.8 |
| 20260507234111 | 35 | 67 | 1.6 | 4.8 | 0.00 | 0.00 | 0.00 | 7 | 40.8 |
| 20260507233611 | 35 | 243 | 0.0 | 12.9 | 0.00 | 0.00 | 0.00 | 9 | 40.8 |
| 20260507233111 | 35 | 10 | 0.0 | 12.9 | 0.00 | 0.00 | 0.00 | 7 | 40.8 |
| 20260507232612 | 35 | 287 | 0.0 | 4.8 | 0.00 | 0.00 | 0.00 | 7 | 40.8 |
| 20260507232111 | 35 | 228 | 1.6 | 4.8 | 0.00 | 0.00 | 0.00 | 10 | 40.8 |
| 20260507231610 | 35 | 238 | 3.2 | 6.4 | 0.00 | 0.00 | 0.00 | 9 | 40.8 |
| 20260507231112 | 35 | 229 | 0.0 | 8.0 | 0.00 | 0.00 | 0.00 | 8 | 40.8 |
| 20260507230610 | 35 | 162 | 1.6 | 8.0 | 0.00 | 0.00 | 0.00 | 9 | 40.8 |
| 20260507230111 | 35 | 224 | 0.0 | 6.4 | 0.00 | 0.00 | 0.00 | 12 | 40.8 |
| 20260507225610 | 34 | 175 | 0.0 | 6.4 | 0.00 | 0.00 | 0.00 | 8 | 40.9 |
| 20260507225110 | 34 | 185 | 4.8 | 4.8 | 0.00 | 0.00 | 0.00 | 9 | 40.9 |
| 20260507224610 | 34 | 142 | 0.0 | 3.2 | 0.00 | 0.00 | 0.00 | 11 | 40.9 |
| 20260507224109 | 35 | 35 | 0.0 | 8.0 | 0.00 | 0.00 | 0.00 | 8 | 40.9 |
| 20260507223610 | 35 | 141 | 1.6 | 8.0 | 0.00 | 0.00 | 0.00 | 8 | 40.9 |
| 20260507223109 | 35 | 327 | 1.6 | 9.7 | 0.00 | 0.00 | 0.00 | 8 | 40.9 |
| 20260507222609 | 34 | 274 | 4.8 | 9.7 | 0.00 | 0.00 | 0.00 | 8 | 40.9 |
| 20260507222108 | 34 | 359 | 6.4 | 20.9 | 0.00 | 0.00 | 0.00 | 9 | 40.9 |
| 20260507221610 | 34 | 357 | 3.2 | 20.9 | 0.00 | 0.00 | 0.00 | 8 | 40.9 |
| 20260507221108 | 34 | 12 | 8.0 | 9.7 | 0.00 | 0.00 | 0.00 | 8 | 40.9 |
| 20260507220609 | 35 | 20 | 6.4 | 16.1 | 0.00 | 0.00 | 0.00 | 9 | 40.9 |
| 20260507220110 | 35 | 55 | 4.8 | 16.1 | 0.00 | 0.00 | 0.00 | 8 | 40.9 |
| 20260507215608 | 35 | 59 | 1.6 | 8.0 | 0.00 | 0.00 | 0.00 | 11 | 40.9 |
| 20260507215108 | 35 | 221 | 0.0 | 3.2 | 0.00 | 0.00 | 0.00 | 10 | 40.9 |
| 20260507214610 | 34 | 197 | 0.0 | 3.2 | 0.00 | 0.00 | 0.00 | 14 | 40.9 |
| 20260507214108 | 34 | 209 | 1.6 | 8.0 | 0.00 | 0.00 | 0.00 | 12 | 40.9 |
| 20260507213609 | 34 | 347 | 0.0 | 8.0 | 0.00 | 0.00 | 0.00 | 9 | 40.9 |
| 20260507213109 | 34 | 316 | 0.0 | 4.8 | 0.00 | 0.00 | 0.00 | 10 | 40.9 |
| 20260507212607 | 33 | 289 | 3.2 | 8.0 | 0.00 | 0.00 | 0.00 | 10 | 40.9 |
| 20260507212107 | 33 | 163 | 0.0 | 8.0 | 0.00 | 0.00 | 0.00 | 12 | 40.9 |
| 20260507211611 | 33 | 104 | 3.2 | 9.7 | 0.00 | 0.00 | 0.00 | 11 | 40.9 |
| 20260507211107 | 33 | 83 | 6.4 | 9.7 | 0.00 | 0.00 | 0.00 | 11 | 40.9 |
| 20260507210607 | 33 | 139 | 4.8 | 9.7 | 0.00 | 0.00 | 0.00 | 14 | 40.9 |
| 20260507210108 | 33 | 90 | 4.8 | 14.5 | 0.00 | 0.00 | 0.00 | 11 | 40.9 |
| 20260507205607 | 33 | 81 | 0.0 | 14.5 | 0.00 | 0.00 | 0.00 | 12 | 40.9 |
| 20260507205106 | 33 | 217 | 0.0 | 8.0 | 0.00 | 0.00 | 0.00 | 13 | 40.9 |
| 20260507204608 | 33 | 119 | 8.0 | 8.0 | 0.00 | 0.00 | 0.00 | 12 | 40.9 |
| 20260507204107 | 33 | 211 | 0.0 | 4.8 | 0.00 | 0.00 | 0.00 | 18 | 40.9 |
| 20260507203605 | 33 | 179 | 0.0 | 4.8 | 0.00 | 0.00 | 0.00 | 15 | 40.9 |
| 20260507203107 | 33 | 114 | 1.6 | 8.0 | 0.00 | 0.00 | 0.00 | 15 | 40.9 |
| 20260507202606 | 33 | 357 | 3.2 | 8.0 | 0.00 | 0.00 | 0.00 | 13 | 40.9 |
| 20260507202105 | 33 | 294 | 6.4 | 9.7 | 0.00 | 0.00 | 0.00 | 13 | 40.9 |
| 20260507201609 | 33 | 153 | 0.0 | 9.7 | 0.00 | 0.00 | 0.00 | 12 | 40.9 |
| 20260507201105 | 33 | 290 | 3.2 | 6.4 | 0.00 | 0.00 | 0.00 | 12 | 40.9 |
| 20260507200605 | 33 | 238 | 0.0 | 11.3 | 0.00 | 0.00 | 0.00 | 11 | 40.9 |
| 20260507200106 | 33 | 39 | 1.6 | 11.3 | 0.00 | 0.00 | 0.00 | 12 | 40.9 |
| 20260507195605 | 33 | 205 | 0.0 | 8.0 | 0.00 | 0.00 | 0.00 | 13 | 40.9 |
| 20260507195105 | 33 | 254 | 0.0 | 9.7 | 0.00 | 0.00 | 0.00 | 11 | 40.9 |
| 20260507194608 | 32 | 21 | 1.6 | 9.7 | 0.00 | 0.00 | 0.00 | 13 | 41.0 |
| 20260507194104 | 33 | 42 | 4.8 | 8.0 | 0.00 | 0.00 | 0.00 | 14 | 41.0 |
| 20260507193604 | 33 | 37 | 1.6 | 4.8 | 0.00 | 0.00 | 0.00 | 13 | 41.0 |
| 20260507193106 | 32 | 219 | 1.6 | 8.0 | 0.00 | 0.00 | 0.00 | 12 | 41.0 |
| 20260507192603 | 32 | 84 | 1.6 | 8.0 | 0.00 | 0.00 | 0.00 | 12 | 41.0 |
| 20260507192104 | 32 | 158 | 0.0 | 6.4 | 0.00 | 0.00 | 0.00 | 17 | 41.0 |
| 20260507191605 | 32 | 299 | 0.0 | 6.4 | 0.00 | 0.00 | 0.00 | 14 | 41.0 |
| 20260507191103 | 31 | 356 | 6.4 | 6.4 | 0.00 | 0.00 | 0.00 | 16 | 41.0 |
| 20260507190603 | 32 | 50 | 3.2 | 6.4 | 0.00 | 0.00 | 0.00 | 15 | 41.0 |
| 20260507190105 | 31 | 238 | 0.0 | 4.8 | 0.00 | 0.00 | 0.00 | 16 | 41.0 |
| 20260507185604 | 31 | 271 | 1.6 | 8.0 | 0.00 | 0.00 | 0.00 | 14 | 41.0 |
| 20260507185102 | 31 | 18 | 0.0 | 11.3 | 0.00 | 0.00 | 0.00 | 17 | 41.0 |
| 20260507184602 | 31 | 18 | 6.4 | 11.3 | 0.00 | 0.00 | 0.00 | 16 | 41.0 |
| 20260507184102 | 31 | 347 | 3.2 | 11.3 | 0.00 | 0.00 | 0.00 | 19 | 41.0 |
| 20260507183603 | 31 | 84 | 6.4 | 9.7 | 0.00 | 0.00 | 0.00 | 22 | 41.0 |
| 20260507183102 | 31 | 170 | 0.0 | 6.4 | 0.00 | 0.00 | 0.00 | 20 | 41.0 |
| 20260507182602 | 31 | 158 | 0.0 | 9.7 | 0.00 | 0.00 | 0.00 | 20 | 41.0 |
| 20260507182102 | 30 | 316 | 0.0 | 9.7 | 0.00 | 0.00 | 0.00 | 16 | 41.0 |
| 20260507181601 | 31 | 290 | 0.0 | 8.0 | 0.00 | 0.00 | 0.00 | 17 | 41.0 |
| 20260507181101 | 30 | 70 | 1.6 | 8.0 | 0.00 | 0.00 | 0.00 | 19 | 41.0 |
| 20260507180601 | 30 | 37 | 6.4 | 8.0 | 0.00 | 0.00 | 0.00 | 18 | 41.0 |
| 20260507180101 | 30 | 63 | 0.0 | 8.0 | 0.00 | 0.00 | 0.00 | 15 | 41.0 |
| 20260507175601 | 30 | 291 | 4.8 | 6.4 | 0.00 | 0.00 | 0.00 | 17 | 41.0 |
| 20260507175101 | 30 | 353 | 3.2 | 4.8 | 0.00 | 0.00 | 0.00 | 17 | 41.0 |
| 20260507174600 | 30 | 290 | 0.0 | 8.0 | 0.00 | 0.00 | 0.00 | 18 | 41.0 |
| 20260507174101 | 30 | 349 | 3.2 | 9.7 | 0.00 | 0.00 | 0.00 | 20 | 41.0 |
| 20260507173600 | 30 | 143 | 4.8 | 9.7 | 0.00 | 0.00 | 0.00 | 18 | 41.0 |
| 20260507173100 | 29 | 48 | 0.0 | 3.2 | 0.00 | 0.00 | 0.00 | 20 | 41.0 |
| 20260507172600 | 28 | 238 | 0.0 | 8.0 | 0.00 | 0.00 | 0.00 | 21 | 41.0 |
| 20260507172100 | 28 | 231 | 0.0 | 8.0 | 0.00 | 0.00 | 0.00 | 20 | 41.0 |
| 20260507171600 | 28 | 86 | 6.4 | 8.0 | 0.00 | 0.00 | 0.00 | 21 | 41.0 |
| 20260507171100 | 28 | 63 | 0.0 | 6.4 | 0.00 | 0.00 | 0.00 | 22 | 41.0 |
| 20260507170559 | 28 | 306 | 0.0 | 6.4 | 0.00 | 0.00 | 0.00 | 21 | 41.0 |
| 20260507170100 | 28 | 341 | 1.6 | 6.4 | 0.00 | 0.00 | 0.00 | 22 | 41.0 |
| 20260507165559 | 28 | 357 | 1.6 | 6.4 | 0.00 | 0.00 | 0.00 | 24 | 41.0 |
| 20260507165059 | 27 | 109 | 0.0 | 8.0 | 0.00 | 0.00 | 0.00 | 22 | 41.0 |
| 20260507164558 | 27 | 3 | 3.2 | 8.0 | 0.00 | 0.00 | 0.00 | 22 | 41.0 |
| 20260507164058 | 27 | 57 | 3.2 | 8.0 | 0.00 | 0.00 | 0.00 | 22 | 41.0 |
| 20260507163601 | 27 | 338 | 4.8 | 8.0 | 0.00 | 0.00 | 0.00 | 24 | 41.0 |
| 20260507163059 | 26 | 15 | 3.2 | 9.7 | 0.00 | 0.00 | 0.00 | 24 | 41.0 |
| 20260507162559 | 26 | 354 | 3.2 | 9.7 | 0.00 | 0.00 | 0.00 | 23 | 41.0 |
| 20260507162058 | 26 | 8 | 8.0 | 11.3 | 0.00 | 0.00 | 0.00 | 22 | 41.0 |
| 20260507161558 | 26 | 13 | 6.4 | 11.3 | 0.00 | 0.00 | 0.00 | 24 | 41.0 |
| 20260507161058 | 26 | 36 | 4.8 | 14.5 | 0.00 | 0.00 | 0.00 | 24 | 41.0 |
| 20260507160558 | 26 | 18 | 1.6 | 14.5 | 0.00 | 0.00 | 0.00 | 25 | 41.0 |
| 20260507160057 | 26 | 356 | 1.6 | 12.9 | 0.00 | 0.00 | 0.00 | 26 | 41.1 |
| 20260507155557 | 26 | 349 | 3.2 | 12.9 | 0.00 | 0.00 | 0.00 | 25 | 41.1 |
| 20260507155058 | 25 | 356 | 3.2 | 8.0 | 0.00 | 0.00 | 0.00 | 26 | 41.1 |
| 20260507154557 | 25 | 4 | 0.0 | 8.0 | 0.00 | 0.00 | 0.00 | 28 | 41.1 |
| 20260507154057 | 25 | 278 | 0.0 | 6.4 | 0.00 | 0.00 | 0.00 | 27 | 41.1 |
| 20260507153556 | 24 | 281 | 0.0 | 3.2 | 0.00 | 0.00 | 0.00 | 28 | 41.1 |
| 20260507153101 | 24 | 278 | 0.0 | 1.6 | 0.00 | 0.00 | 0.00 | 29 | 41.1 |
| 20260507152558 | 23 | 167 | 0.0 | 0.0 | 0.00 | 0.00 | 0.00 | 29 | 41.1 |
| 20260507152057 | 23 | 179 | 0.0 | 0.0 | 0.00 | 0.00 | 0.00 | 31 | 41.1 |
| 20260507151556 | 23 | 179 | 0.0 | 1.6 | 0.00 | 0.00 | 0.00 | 33 | 41.1 |
| 20260507151057 | 22 | 179 | 0.0 | 1.6 | 0.00 | 0.00 | 0.00 | 33 | 41.1 |
| 20260507150556 | 22 | 226 | 0.0 | 3.2 | 0.00 | 0.00 | 0.00 | 35 | 41.1 |
| 20260507150126 | 21 | 278 | 0.0 | 3.2 | 0.00 | 0.00 | 0.00 | 37 | 41.1 |
| 20260507145555 | 21 | 293 | 1.6 | 1.6 | 0.00 | 0.00 | 0.00 | 36 | 41.1 |
| 20260507145055 | 21 | 205 | 0.0 | 1.6 | 0.00 | 0.00 | 0.00 | 36 | 41.1 |
| 20260507144555 | 20 | 219 | 0.0 | 1.6 | 0.00 | 0.00 | 0.00 | 38 | 41.1 |
| 20260507144055 | 20 | 219 | 0.0 | 1.6 | 0.00 | 0.00 | 0.00 | 37 | 41.1 |
| 20260507143555 | 20 | 217 | 0.0 | 1.6 | 0.00 | 0.00 | 0.00 | 35 | 41.1 |
| 20260507143056 | 20 | 233 | 0.0 | 1.6 | 0.00 | 0.00 | 0.00 | 40 | 41.1 |
| 20260507142555 | 20 | 166 | 0.0 | 4.8 | 0.00 | 0.00 | 0.00 | 35 | 41.1 |
| 20260507142055 | 21 | 171 | 0.0 | 4.8 | 0.00 | 0.00 | 0.00 | 34 | 41.1 |
| 20260507141556 | 20 | 163 | 0.0 | 0.0 | 0.00 | 0.00 | 0.00 | 36 | 41.1 |
| 20260507141054 | 20 | 163 | 0.0 | 0.0 | 0.00 | 0.00 | 0.00 | 41 | 41.1 |
| 20260507140554 | 20 | 64 | 0.0 | 0.0 | 0.00 | 0.00 | 0.00 | 41 | 41.1 |
| 20260507140125 | 20 | 64 | 0.0 | 0.0 | 0.00 | 0.00 | 0.00 | 39 | 41.1 |
| 20260507135556 | 18 | 64 | 0.0 | 0.0 | 0.00 | 0.00 | 0.00 | 37 | 41.1 |
| 20260507135055 | 18 | 64 | 0.0 | 0.0 | 0.00 | 0.00 | 0.00 | 43 | 41.1 |
| 20260507134554 | 17 | 64 | 0.0 | 0.0 | 0.00 | 0.00 | 0.00 | 45 | 41.1 |
| 20260507134053 | 16 | 64 | 0.0 | 0.0 | 0.00 | 0.00 | 0.00 | 48 | 41.1 |
| 20260507133623 | 15 | 64 | 0.0 | 0.0 | 0.00 | 0.00 | 0.00 | 48 | 41.0 |
| 20260507133053 | 15 | 64 | 0.0 | 0.0 | 0.00 | 0.00 | 0.00 | 49 | 41.0 |
| 20260507132553 | 14 | 64 | 0.0 | 0.0 | 0.00 | 0.00 | 0.00 | 49 | 41.0 |
| 20260507132052 | 14 | 64 | 0.0 | 0.0 | 0.00 | 0.00 | 0.00 | 48 | 41.1 |
| 20260507131552 | 14 | 64 | 0.0 | 1.6 | 0.00 | 0.00 | 0.00 | 49 | 41.0 |
| 20260507131122 | 14 | 64 | 0.0 | 1.6 | 0.00 | 0.00 | 0.00 | 49 | 41.0 |
| 20260507130552 | 13 | 64 | 0.0 | 1.6 | 0.00 | 0.00 | 0.00 | 49 | 41.0 |
| 20260507130122 | 13 | 64 | 0.0 | 1.6 | 0.00 | 0.00 | 0.00 | 50 | 41.0 |
| 20260507125622 | 13 | 83 | 0.0 | 1.6 | 0.00 | 0.00 | 0.00 | 49 | 41.0 |
| 20260507125052 | 13 | 100 | 0.0 | 1.6 | 0.00 | 0.00 | 0.00 | 50 | 41.0 |
| 20260507124552 | 13 | 152 | 0.0 | 0.0 | 0.00 | 0.00 | 0.00 | 51 | 41.0 |
| 20260507124053 | 13 | 152 | 0.0 | 0.0 | 0.00 | 0.00 | 0.00 | 52 | 41.0 |
| 20260507123621 | 13 | 152 | 0.0 | 0.0 | 0.00 | 0.00 | 0.00 | 53 | 41.0 |
| 20260507123052 | 13 | 152 | 0.0 | 0.0 | 0.00 | 0.00 | 0.00 | 53 | 41.0 |
| 20260507122621 | 13 | 152 | 0.0 | 0.0 | 0.00 | 0.00 | 0.00 | 52 | 41.0 |
| 20260507122121 | 13 | 152 | 0.0 | 0.0 | 0.00 | 0.00 | 0.00 | 52 | 41.0 |
| 20260507121551 | 13 | 152 | 0.0 | 0.0 | 0.00 | 0.00 | 0.00 | 52 | 41.0 |
| 20260507121120 | 13 | 152 | 0.0 | 0.0 | 0.00 | 0.00 | 0.00 | 51 | 41.0 |
| 20260507120551 | 13 | 152 | 0.0 | 0.0 | 0.00 | 0.00 | 0.00 | 50 | 41.0 |
| 20260507120120 | 13 | 152 | 0.0 | 0.0 | 0.00 | 0.00 | 0.00 | 51 | 41.0 |
| 20260507115551 | 14 | 152 | 0.0 | 0.0 | 0.00 | 0.00 | 0.00 | 49 | 41.0 |
| 20260507115052 | 14 | 152 | 0.0 | 0.0 | 0.00 | 0.00 | 0.00 | 49 | 41.0 |
| 20260507114620 | 14 | 152 | 0.0 | 0.0 | 0.00 | 0.00 | 0.00 | 48 | 41.0 |
| 20260507114121 | 14 | 152 | 0.0 | 0.0 | 0.00 | 0.00 | 0.00 | 47 | 41.0 |
| 20260507113619 | 14 | 152 | 0.0 | 0.0 | 0.00 | 0.00 | 0.00 | 46 | 41.0 |
| 20260507113119 | 14 | 152 | 0.0 | 0.0 | 0.00 | 0.00 | 0.00 | 46 | 41.0 |
| 20260507112619 | 14 | 152 | 0.0 | 0.0 | 0.00 | 0.00 | 0.00 | 47 | 41.0 |
| 20260507112121 | 15 | 152 | 0.0 | 0.0 | 0.00 | 0.00 | 0.00 | 46 | 41.1 |
| 20260507111619 | 15 | 152 | 0.0 | 0.0 | 0.00 | 0.00 | 0.00 | 45 | 41.1 |
| 20260507111119 | 15 | 152 | 0.0 | 0.0 | 0.00 | 0.00 | 0.00 | 44 | 41.0 |
| 20260507110620 | 15 | 152 | 0.0 | 1.6 | 0.00 | 0.00 | 0.00 | 44 | 41.0 |
| 20260507110118 | 15 | 152 | 0.0 | 1.6 | 0.00 | 0.00 | 0.00 | 46 | 41.0 |
| 20260507105618 | 15 | 153 | 1.6 | 1.6 | 0.00 | 0.00 | 0.00 | 45 | 41.0 |
| 20260507105120 | 15 | 175 | 0.0 | 1.6 | 0.00 | 0.00 | 0.00 | 45 | 41.0 |
| 20260507104618 | 15 | 175 | 0.0 | 0.0 | 0.00 | 0.00 | 0.00 | 44 | 41.0 |
| 20260507104118 | 15 | 175 | 0.0 | 0.0 | 0.00 | 0.00 | 0.00 | 43 | 41.0 |
| 20260507103619 | 15 | 175 | 0.0 | 1.6 | 0.00 | 0.00 | 0.00 | 42 | 41.0 |
| 20260507103119 | 15 | 179 | 0.0 | 1.6 | 0.00 | 0.00 | 0.00 | 43 | 41.0 |
| 20260507102618 | 15 | 278 | 0.0 | 0.0 | 0.00 | 0.00 | 0.00 | 45 | 41.0 |
| 20260507102121 | 15 | 279 | 0.0 | 0.0 | 0.00 | 0.00 | 0.00 | 44 | 41.1 |
| 20260507101618 | 15 | 279 | 0.0 | 0.0 | 0.00 | 0.00 | 0.00 | 42 | 41.0 |
| 20260507101117 | 16 | 279 | 0.0 | 0.0 | 0.00 | 0.00 | 0.00 | 42 | 41.0 |
| 20260507100619 | 16 | 279 | 0.0 | 0.0 | 0.00 | 0.00 | 0.00 | 41 | 41.0 |
| 20260507100117 | 16 | 279 | 0.0 | 0.0 | 0.00 | 0.00 | 0.00 | 41 | 41.0 |
| 20260507095617 | 16 | 279 | 0.0 | 0.0 | 0.00 | 0.00 | 0.00 | 40 | 41.0 |
| 20260507095119 | 16 | 279 | 0.0 | 0.0 | 0.00 | 0.00 | 0.00 | 39 | 41.0 |
| 20260507094616 | 17 | 279 | 0.0 | 0.0 | 0.00 | 0.00 | 0.00 | 37 | 41.0 |
| 20260507094117 | 17 | 279 | 0.0 | 0.0 | 0.00 | 0.00 | 0.00 | 37 | 41.0 |
| 20260507093618 | 17 | 279 | 0.0 | 0.0 | 0.00 | 0.00 | 0.00 | 36 | 41.0 |
| 20260507093117 | 17 | 279 | 0.0 | 1.6 | 0.00 | 0.00 | 0.00 | 37 | 41.0 |
| 20260507092616 | 17 | 279 | 0.0 | 1.6 | 0.00 | 0.00 | 0.00 | 37 | 41.0 |
| 20260507092117 | 17 | 278 | 0.0 | 0.0 | 0.00 | 0.00 | 0.00 | 37 | 41.1 |
| 20260507091615 | 17 | 278 | 0.0 | 0.0 | 0.00 | 0.00 | 0.00 | 35 | 41.1 |
| 20260507091115 | 17 | 278 | 0.0 | 0.0 | 0.00 | 0.00 | 0.00 | 36 | 41.1 |
| 20260507090615 | 17 | 278 | 0.0 | 0.0 | 0.00 | 0.00 | 0.00 | 35 | 41.1 |
| 20260507090115 | 17 | 278 | 0.0 | 0.0 | 0.00 | 0.00 | 0.00 | 33 | 41.1 |
| 20260507085615 | 17 | 278 | 0.0 | 0.0 | 0.00 | 0.00 | 0.00 | 32 | 41.1 |
| 20260507085114 | 17 | 278 | 0.0 | 0.0 | 0.00 | 0.00 | 0.00 | 34 | 41.1 |
| 20260507084614 | 18 | 278 | 0.0 | 0.0 | 0.00 | 0.00 | 0.00 | 31 | 41.1 |
| 20260507084115 | 18 | 278 | 0.0 | 0.0 | 0.00 | 0.00 | 0.00 | 32 | 41.1 |
| 20260507083614 | 18 | 278 | 0.0 | 0.0 | 0.00 | 0.00 | 0.00 | 35 | 41.1 |
| 20260507083114 | 18 | 278 | 0.0 | 0.0 | 0.00 | 0.00 | 0.00 | 32 | 41.1 |
| 20260507082614 | 19 | 278 | 0.0 | 0.0 | 0.00 | 0.00 | 0.00 | 30 | 41.1 |
| 20260507082115 | 20 | 278 | 0.0 | 0.0 | 0.00 | 0.00 | 0.00 | 34 | 41.1 |
| 20260507081613 | 20 | 278 | 0.0 | 0.0 | 0.00 | 0.00 | 0.00 | 28 | 41.1 |
| 20260507081113 | 20 | 278 | 0.0 | 0.0 | 0.00 | 0.00 | 0.00 | 27 | 41.1 |
| 20260507080614 | 21 | 278 | 0.0 | 1.6 | 0.00 | 0.00 | 0.00 | 26 | 41.1 |
| 20260507080113 | 21 | 280 | 0.0 | 1.6 | 0.00 | 0.00 | 0.00 | 26 | 41.1 |
| 20260507075613 | 21 | 290 | 0.0 | 1.6 | 0.00 | 0.00 | 0.00 | 27 | 41.1 |
| 20260507075113 | 21 | 272 | 0.0 | 3.2 | 0.00 | 0.00 | 0.00 | 29 | 41.1 |
| 20260507074613 | 21 | 272 | 0.0 | 3.2 | 0.00 | 0.00 | 0.00 | 28 | 41.1 |
| 20260507074112 | 21 | 270 | 0.0 | 3.2 | 0.00 | 0.00 | 0.00 | 26 | 41.1 |
| 20260507073612 | 21 | 269 | 0.0 | 1.6 | 0.00 | 0.00 | 0.00 | 27 | 41.1 |
| 20260507073112 | 21 | 269 | 0.0 | 1.6 | 0.00 | 0.00 | 0.00 | 26 | 41.1 |
| 20260507072612 | 22 | 274 | 0.0 | 3.2 | 0.00 | 0.00 | 0.00 | 25 | 41.1 |
| 20260507072112 | 22 | 279 | 0.0 | 3.2 | 0.00 | 0.00 | 0.00 | 24 | 41.1 |
| 20260507071611 | 22 | 269 | 3.2 | 3.2 | 0.00 | 0.00 | 0.00 | 25 | 41.1 |
| 20260507071112 | 22 | 251 | 0.0 | 3.2 | 0.00 | 0.00 | 0.00 | 25 | 41.1 |
| 20260507070611 | 22 | 257 | 0.0 | 3.2 | 0.00 | 0.00 | 0.00 | 24 | 41.1 |
| 20260507070112 | 22 | 278 | 0.0 | 4.8 | 0.00 | 0.00 | 0.00 | 25 | 41.1 |
| 20260507065612 | 22 | 268 | 0.0 | 4.8 | 0.00 | 0.00 | 0.00 | 24 | 41.1 |
| 20260507065111 | 22 | 280 | 0.0 | 4.8 | 0.00 | 0.00 | 0.00 | 25 | 41.1 |
| 20260507064611 | 22 | 268 | 0.0 | 4.8 | 0.00 | 0.00 | 0.00 | 24 | 41.1 |
| 20260507064111 | 22 | 271 | 0.0 | 3.2 | 0.00 | 0.00 | 0.00 | 24 | 41.1 |
| 20260507063610 | 22 | 266 | 0.0 | 3.2 | 0.00 | 0.00 | 0.00 | 23 | 41.1 |
| 20260507063110 | 22 | 278 | 1.6 | 6.4 | 0.00 | 0.00 | 0.00 | 23 | 41.1 |
| 20260507062610 | 22 | 264 | 0.0 | 6.4 | 0.00 | 0.00 | 0.00 | 23 | 41.1 |
| 20260507062111 | 22 | 264 | 0.0 | 6.4 | 0.00 | 0.00 | 0.00 | 23 | 41.1 |
| 20260507061611 | 22 | 289 | 0.0 | 4.8 | 0.00 | 0.00 | 0.00 | 23 | 41.1 |
| 20260507061110 | 22 | 274 | 0.0 | 4.8 | 0.00 | 0.00 | 0.00 | 23 | 41.1 |
| 20260507060611 | 22 | 275 | 1.6 | 4.8 | 0.00 | 0.00 | 0.00 | 23 | 41.1 |
| 20260507060110 | 22 | 266 | 0.0 | 4.8 | 0.00 | 0.00 | 0.00 | 23 | 41.1 |
| 20260507055609 | 23 | 278 | 0.0 | 4.8 | 0.00 | 0.00 | 0.00 | 22 | 41.1 |
| 20260507055109 | 23 | 280 | 0.0 | 6.4 | 0.00 | 0.00 | 0.00 | 22 | 41.1 |
| 20260507054609 | 23 | 238 | 1.6 | 6.4 | 0.00 | 0.00 | 0.00 | 22 | 41.1 |
| 20260507054109 | 23 | 261 | 3.2 | 4.8 | 0.00 | 0.00 | 0.00 | 23 | 41.1 |
| 20260507053611 | 23 | 274 | 4.8 | 4.8 | 0.00 | 0.00 | 0.00 | 23 | 41.1 |
| 20260507053109 | 23 | 271 | 0.0 | 8.0 | 0.00 | 0.00 | 0.00 | 23 | 41.1 |
| 20260507052608 | 23 | 269 | 1.6 | 8.0 | 0.00 | 0.00 | 0.00 | 22 | 41.1 |
| 20260507052110 | 23 | 269 | 0.0 | 3.2 | 0.00 | 0.00 | 0.00 | 22 | 41.1 |
| 20260507051608 | 23 | 288 | 0.0 | 4.8 | 0.00 | 0.00 | 0.00 | 22 | 41.1 |
| 20260507051109 | 23 | 274 | 1.6 | 4.8 | 0.00 | 0.00 | 0.00 | 22 | 41.1 |
| 20260507050610 | 23 | 279 | 0.0 | 4.8 | 0.00 | 0.00 | 0.00 | 22 | 41.1 |
| 20260507050109 | 23 | 244 | 0.0 | 4.8 | 0.00 | 0.00 | 0.00 | 22 | 41.1 |
| 20260507045608 | 23 | 248 | 0.0 | 4.8 | 0.00 | 0.00 | 0.00 | 22 | 41.1 |
| 20260507045111 | 23 | 284 | 0.0 | 4.8 | 0.00 | 0.00 | 0.00 | 22 | 41.1 |
| 20260507044607 | 23 | 257 | 0.0 | 8.0 | 0.00 | 0.00 | 0.00 | 22 | 41.1 |
| 20260507044107 | 23 | 243 | 3.2 | 8.0 | 0.00 | 0.00 | 0.00 | 21 | 41.1 |
| 20260507043609 | 23 | 247 | 0.0 | 6.4 | 0.00 | 0.00 | 0.00 | 22 | 41.1 |
| 20260507043107 | 23 | 259 | 3.2 | 4.8 | 0.00 | 0.00 | 0.00 | 23 | 41.1 |
| 20260507042609 | 23 | 252 | 0.0 | 3.2 | 0.00 | 0.00 | 0.00 | 22 | 41.1 |
| 20260507042108 | 23 | 288 | 0.0 | 3.2 | 0.00 | 0.00 | 0.00 | 22 | 41.1 |
| 20260507041606 | 23 | 266 | 0.0 | 4.8 | 0.00 | 0.00 | 0.00 | 23 | 41.1 |
| 20260507041106 | 23 | 271 | 0.0 | 4.8 | 0.00 | 0.00 | 0.00 | 22 | 41.1 |
| 20260507040609 | 23 | 273 | 0.0 | 1.6 | 0.00 | 0.00 | 0.00 | 22 | 41.1 |
| 20260507040106 | 23 | 270 | 0.0 | 1.6 | 0.00 | 0.00 | 0.00 | 23 | 41.1 |
| 20260507035606 | 23 | 281 | 0.0 | 1.6 | 0.00 | 0.00 | 0.00 | 23 | 41.0 |
| 20260507035108 | 23 | 275 | 0.0 | 1.6 | 0.00 | 0.00 | 0.00 | 23 | 41.0 |
| 20260507034605 | 23 | 259 | 0.0 | 1.6 | 0.00 | 0.00 | 0.00 | 24 | 41.0 |
| 20260507034105 | 23 | 264 | 0.0 | 1.6 | 0.00 | 0.00 | 0.00 | 24 | 41.0 |
| 20260507033608 | 22 | 265 | 0.0 | 0.0 | 0.00 | 0.00 | 0.00 | 25 | 41.0 |
| 20260507033105 | 22 | 265 | 0.0 | 0.0 | 0.00 | 0.00 | 0.00 | 26 | 41.0 |
| 20260507032605 | 22 | 265 | 0.0 | 0.0 | 0.00 | 0.00 | 0.00 | 26 | 41.0 |
| 20260507032107 | 23 | 265 | 0.0 | 0.0 | 0.00 | 0.00 | 0.00 | 25 | 41.0 |
| 20260507031606 | 23 | 265 | 0.0 | 0.0 | 0.00 | 0.00 | 0.00 | 24 | 41.0 |
| 20260507031104 | 23 | 265 | 0.0 | 0.0 | 0.00 | 0.00 | 0.00 | 24 | 41.0 |
| 20260507030606 | 23 | 265 | 0.0 | 0.0 | 0.00 | 0.00 | 0.00 | 23 | 41.0 |
| 20260507030104 | 24 | 265 | 0.0 | 0.0 | 0.00 | 0.00 | 0.00 | 23 | 41.0 |